Date String (YYYY-MM-DD hh:mm:ss) UTC,Instrument flags,absolute air pressure of the measurement (hPa),sample flow rate (lpm),inlet stack bypass flow (lpm),air temperature of the measurement (°C),ambient temperature measured by the external sensor (°C),aerosol sample conditioner tube jacket temperature (°C),OPC LED temperature (°C),internal box temperature (°C),relative humidity of the measurement (%),span deviation,mass concentration of particles derived from Lorenz-Mie calculation of OPC scattering (μg/m³),mass concentration of particles derived from Lorenz-Mie calculation of OPC scattering (μg/m³),mass concentration of particles derived from Lorenz-Mie calculation of OPC scattering (μg/m³)
DateTimeUTC,F1_M11,P_M11,Q1_M11,Q2_M11,T1_M11,T2_M11,T3_M11,T4_M11,T5_M11,U1_M11,ZSPAN_M11,X0_M11,X2_M11,X1_M11
2023-09-09 09:00:00,SystemResetWarning,0834.8,5.00,000.00,028.6,027.5,000.0,036.9,030.2,10.8,0000.0,0006.53,0001.61,0001.05
2023-09-09 09:01:00,SystemResetWarning,0834.8,5.00,000.00,028.6,027.5,000.0,036.9,030.2,10.7,0000.0,0006.48,0001.57,0001.05
2023-09-09 09:02:00,SystemResetWarning,0834.7,5.00,000.00,028.6,027.5,000.0,036.9,030.2,10.7,0000.0,0007.23,0001.56,0001.03
2023-09-09 09:03:00,SystemResetWarning,0834.7,4.98,000.00,028.6,026.3,000.0,036.9,030.1,10.7,0000.0,0006.71,0001.57,0001.04
2023-09-09 09:04:00,SystemResetWarning,0834.7,5.02,000.00,028.5,024.8,000.0,036.8,029.9,10.7,0000.0,0004.93,0001.57,0001.05
2023-09-09 09:05:00,SystemResetWarning,0834.7,5.00,000.00,028.5,024.7,000.0,036.7,029.7,10.8,0000.0,0003.76,0001.53,0001.03
2023-09-09 09:06:00,SystemResetWarning,0834.7,5.00,000.00,028.4,024.9,000.0,036.7,029.5,10.9,0000.0,0003.34,0001.43,0000.96
2023-09-09 09:07:00,SystemResetWarning,0834.7,5.01,000.00,028.3,025.2,000.0,036.7,029.5,11.0,0000.0,0003.23,0001.39,0000.94
2023-09-09 09:08:00,SystemResetWarning,0834.8,5.00,000.00,028.3,025.6,000.0,036.7,029.6,11.0,0000.0,0003.14,0001.34,0000.92
2023-09-09 09:09:00,SystemResetWarning,0834.7,5.00,000.00,028.2,025.9,000.0,036.7,029.6,11.0,0000.0,0003.11,0001.31,0000.91
2023-09-09 09:10:00,SystemResetWarning,0834.7,4.99,000.00,028.2,026.1,000.0,036.7,029.7,11.0,0000.0,0003.34,0001.37,0000.91
2023-09-09 09:11:00,SystemResetWarning,0834.8,4.99,000.00,028.2,026.4,000.0,036.7,029.7,11.0,0000.0,0003.28,0001.34,0000.90
2023-09-09 09:12:00,SystemResetWarning,0834.7,4.99,000.00,028.3,026.6,000.0,036.7,029.8,11.0,0000.0,0004.29,0001.33,0000.90
2023-09-09 09:13:00,SystemResetWarning,0834.8,5.00,000.00,028.3,026.7,000.0,036.7,029.8,10.9,0000.0,0003.74,0001.35,0000.90
2023-09-09 09:14:00,SystemResetWarning,0834.8,5.01,000.00,028.3,026.8,000.0,036.7,029.8,10.9,0000.0,0003.67,0001.34,0000.89
2023-09-09 09:15:00,SystemResetWarning,0834.7,5.00,000.00,028.3,026.9,000.0,036.8,029.9,10.8,0000.0,0003.71,0001.35,0000.88
2023-09-09 09:16:00,SystemResetWarning,0834.7,5.00,000.00,028.3,027.0,000.0,036.8,029.9,10.7,0000.0,0003.73,0001.37,0000.89
2023-09-09 09:17:00,SystemResetWarning,0834.7,5.01,000.00,028.4,027.1,000.0,036.8,029.9,10.7,0000.0,0003.71,0001.37,0000.89
2023-09-09 09:18:00,SystemResetWarning,0834.8,5.01,000.00,028.4,027.2,000.0,036.8,030.0,10.7,0000.0,0003.79,0001.40,0000.89
2023-09-09 09:19:00,SystemResetWarning,0834.7,5.00,000.00,028.4,027.3,000.0,036.8,030.0,10.6,0000.0,0003.86,0001.42,0000.89
2023-09-09 09:20:00,SystemResetWarning,0834.7,4.99,000.00,028.5,027.3,000.0,036.8,030.0,10.6,0000.0,0004.00,0001.43,0000.89
2023-09-09 09:21:00,SystemResetWarning,0834.7,5.00,000.00,028.5,027.4,000.0,036.8,030.1,10.6,0000.0,0004.76,0001.43,0000.89
2023-09-09 09:22:00,SystemResetWarning,0834.7,5.00,000.00,028.5,027.4,000.0,036.9,030.1,10.6,0000.0,0004.96,0001.40,0000.89
2023-09-09 09:23:00,SystemResetWarning,0834.7,5.00,000.00,028.5,027.5,000.0,036.9,030.1,10.6,0000.0,0004.38,0001.43,0000.88
2023-09-09 09:24:00,SystemResetWarning,0834.7,5.01,000.00,028.6,027.5,000.0,036.9,030.2,10.6,0000.0,0004.01,0001.44,0000.89
2023-09-09 09:25:00,SystemResetWarning,0834.7,5.00,000.00,028.6,027.5,000.0,036.9,030.2,10.6,0000.0,0004.27,0001.47,0000.89
2023-09-09 09:26:00,SystemResetWarning,0835.0,5.00,000.00,028.6,027.6,000.0,036.9,030.2,10.5,0000.0,0004.39,0001.47,0000.89
2023-09-09 09:27:00,SystemResetWarning,0835.2,4.99,000.00,028.6,027.2,000.0,036.9,030.2,10.4,0000.0,0004.36,0001.44,0000.89
2023-09-09 09:28:00,SystemResetWarning,0834.7,5.00,000.00,028.6,025.4,000.0,036.8,030.0,10.4,0000.0,0004.30,0001.42,0000.88
2023-09-09 09:29:00,SystemResetWarning,0834.7,5.01,000.00,028.5,024.6,000.0,036.8,029.9,10.4,0000.0,0004.11,0001.36,0000.88
2023-09-09 09:30:00,SystemResetWarning,0834.6,5.01,000.00,028.5,024.7,000.0,036.8,029.7,10.4,0000.0,0003.95,0001.35,0000.89
2023-09-09 09:31:00,SystemResetWarning,0834.7,5.00,000.00,028.4,025.0,000.0,036.8,029.6,10.5,0000.0,0004.42,0001.30,0000.90
2023-09-09 09:32:00,SystemResetWarning,0834.6,4.99,000.00,028.3,025.4,000.0,036.8,029.6,10.6,0000.0,0003.99,0001.26,0000.90
2023-09-09 09:33:00,SystemResetWarning,0834.6,5.00,000.00,028.3,025.7,000.0,036.8,029.6,10.6,0000.0,0003.78,0001.30,0000.90
2023-09-09 09:34:00,SystemResetWarning,0834.6,5.01,000.00,028.3,026.0,000.0,036.8,029.7,10.6,0000.0,0003.87,0001.32,0000.92
2023-09-09 09:35:00,SystemResetWarning,0834.7,5.00,000.00,028.3,026.2,000.0,036.8,029.7,10.6,0000.0,0003.65,0001.27,0000.92
2023-09-09 09:36:00,SystemResetWarning,0834.9,5.00,000.00,028.3,026.5,000.0,036.8,029.7,10.7,0000.0,0003.32,0001.22,0000.91
2023-09-09 09:37:00,SystemResetWarning,0834.9,5.00,000.00,028.3,026.6,000.0,036.8,029.8,10.7,0000.0,0003.18,0001.22,0000.92
2023-09-09 09:38:00,SystemResetWarning,0835.2,5.00,000.00,028.3,026.8,000.0,036.8,029.8,10.6,0000.0,0004.09,0001.25,0000.92
2023-09-09 09:39:00,SystemResetWarning,0835.1,5.00,000.00,028.3,026.9,000.0,036.8,029.9,10.6,0000.0,0004.37,0001.27,0000.93
2023-09-09 09:40:00,SystemResetWarning,0835.2,4.99,000.00,028.3,027.0,000.0,036.8,029.9,10.7,0000.0,0004.57,0001.29,0000.93
2023-09-09 09:41:00,SystemResetWarning,0835.2,5.00,000.00,028.4,027.1,000.0,036.8,029.9,10.6,0000.0,0005.87,0001.32,0000.93
2023-09-09 09:42:00,SystemResetWarning,0835.2,4.99,000.00,028.4,027.2,000.0,036.8,030.0,10.6,0000.0,0005.47,0001.33,0000.92
2023-09-09 09:43:00,SystemResetWarning,0835.2,5.00,000.00,028.4,027.2,000.0,036.8,030.0,10.6,0000.0,0004.74,0001.34,0000.92
2023-09-09 09:44:00,SystemResetWarning,0835.3,5.00,000.00,028.4,027.3,000.0,036.8,030.0,10.6,0000.0,0004.74,0001.34,0000.92
2023-09-09 09:45:00,SystemResetWarning,0835.2,5.00,000.00,028.5,027.3,000.0,036.8,030.1,10.5,0000.0,0004.98,0001.36,0000.92
2023-09-09 09:46:00,SystemResetWarning,0835.2,5.00,000.00,028.5,027.4,000.0,036.9,030.1,10.6,0000.0,0005.36,0001.39,0000.92
2023-09-09 09:47:00,SystemResetWarning,0835.3,5.00,000.00,028.5,027.4,000.0,036.9,030.1,10.7,0000.0,0005.44,0001.39,0000.93
2023-09-09 09:48:00,SystemResetWarning,0835.0,5.00,000.00,028.6,027.5,000.0,036.9,030.1,10.9,0000.0,0005.47,0001.38,0000.92
2023-09-09 09:49:00,SystemResetWarning,0834.6,5.00,000.00,028.6,027.5,000.0,036.9,030.2,10.7,0000.0,0005.28,0001.41,0000.93
2023-09-09 09:50:00,SystemResetWarning,0834.6,5.00,000.00,028.6,027.5,000.0,036.9,030.2,10.6,0000.0,0005.00,0001.43,0000.94
2023-09-09 09:51:00,SystemResetWarning,0834.6,5.00,000.00,028.6,027.5,000.0,037.0,030.2,10.8,0000.0,0004.92,0001.43,0000.94
2023-09-09 09:52:00,SystemResetWarning,0834.8,5.00,000.00,028.7,027.3,000.0,037.0,030.2,10.8,0000.0,0003.78,0001.42,0000.94
2023-09-09 09:53:00,SystemResetWarning,0834.7,4.98,000.00,028.6,025.5,000.0,036.9,030.0,10.7,0000.0,0003.93,0001.42,0000.95
2023-09-09 09:54:00,SystemResetWarning,0834.6,5.01,000.00,028.6,024.7,000.0,036.8,029.9,10.6,0000.0,0003.90,0001.39,0000.95
2023-09-09 09:55:00,SystemResetWarning,0834.7,5.01,000.00,028.5,024.7,000.0,036.8,029.7,10.8,0000.0,0003.95,0001.42,0000.95
2023-09-09 09:56:00,SystemResetWarning,0834.6,5.00,000.00,028.4,025.0,000.0,036.8,029.6,10.7,0000.0,0003.82,0001.40,0000.94
2023-09-09 09:57:00,SystemResetWarning,0834.7,5.00,000.00,028.3,025.3,000.0,036.8,029.6,10.6,0000.0,0003.38,0001.41,0000.95
2023-09-09 09:58:00,SystemResetWarning,0834.6,5.00,000.00,028.3,025.7,000.0,036.8,029.6,10.6,0000.0,0003.38,0001.46,0000.95
2023-09-09 09:59:00,SystemResetWarning,0834.6,5.00,000.00,028.3,026.0,000.0,036.8,029.7,10.8,0000.0,0003.34,0001.44,0000.94
